• In Germany
  • List of Countries
  • For 7 days
  • Water Temperature
  • Satellite Maps
  • Weather Map
  • Weather Widgets
  • user-avatar
    Login

    Hourly Weather Mingachevir

    Today, 29 May, Monday

    Time Temperature Precipitation Wind Pressure Humidity
    00:00 +18°C° 0.1 mm 2 mps 754 mmHg 79%
    01:00 +19°C° 0 mm 1 mps 754 mmHg 80%
    02:00 +18°C° 0 mm 1 mps 754 mmHg 82%
    03:00 +18°C° 0 mm 1 mps 754 mmHg 77%
    04:00 +17°C° 0 mm 0 mps 754 mmHg 73%
    05:00 +18°C° 0 mm 0 mps 754 mmHg 69%
    06:00 +20°C° 0 mm 0 mps 755 mmHg 65%
    07:00 +23°C° 0 mm 1 mps 755 mmHg 59%
    08:00 +25°C° 0 mm 1 mps 755 mmHg 54%
    09:00 +26°C° 0 mm 1 mps 755 mmHg 49%
    10:00 +27°C° 0 mm 2 mps 755 mmHg 46%
    11:00 +29°C° 0 mm 2 mps 754 mmHg 44%
    12:00 +30°C° 0 mm 3 mps 754 mmHg 41%
    13:00 +30°C° 0.1 mm 3 mps 754 mmHg 41%
    14:00 +32°C° 0.1 mm 4 mps 754 mmHg 40%
    15:00 +32°C° 0.1 mm 4 mps 754 mmHg 39%
    16:00 +30°C° 0 mm 5 mps 754 mmHg 42%
    17:00 +29°C° 0 mm 5 mps 754 mmHg 44%
    18:00 +28°C° 0 mm 5 mps 754 mmHg 47%
    19:00 +26°C° 0 mm 5 mps 755 mmHg 51%
    20:00 +23°C° 0 mm 4 mps 755 mmHg 56%
    21:00 +21°C° 0 mm 4 mps 756 mmHg 60%
    22:00 +20°C° 0 mm 3 mps 756 mmHg 63%
    23:00 +19°C° 0 mm 3 mps 756 mmHg 65%

    Tomorrow, 30 May, Tuesday

    Time Temperature Precipitation Wind Pressure Humidity
    00:00 +19°C° 0 mm 2 mps 756 mmHg 68%
    01:00 +18°C° 0 mm 2 mps 755 mmHg 71%
    02:00 +18°C° 0 mm 1 mps 755 mmHg 73%
    03:00 +18°C° 0 mm 1 mps 755 mmHg 75%
    04:00 +19°C° 0 mm 1 mps 755 mmHg 72%
    05:00 +20°C° 0 mm 1 mps 755 mmHg 70%
    06:00 +21°C° 0 mm 1 mps 755 mmHg 67%
    07:00 +22°C° 0 mm 1 mps 754 mmHg 61%
    08:00 +24°C° 0 mm 1 mps 754 mmHg 55%
    09:00 +26°C° 0 mm 1 mps 753 mmHg 49%
    10:00 +27°C° 0 mm 1 mps 753 mmHg 46%
    11:00 +28°C° 0 mm 1 mps 752 mmHg 42%
    12:00 +30°C° 0 mm 1 mps 751 mmHg 38%
    13:00 +30°C° 0 mm 1 mps 751 mmHg 37%
    14:00 +31°C° 0 mm 2 mps 751 mmHg 36%
    15:00 +32°C° 0 mm 2 mps 750 mmHg 34%
    16:00 +31°C° 0 mm 1 mps 750 mmHg 36%
    17:00 +31°C° 0 mm 1 mps 750 mmHg 39%
    18:00 +31°C° 0 mm 1 mps 750 mmHg 41%
    19:00 +28°C° 0 mm 1 mps 750 mmHg 45%
    20:00 +26°C° 0 mm 1 mps 750 mmHg 50%
    21:00 +24°C° 0 mm 1 mps 751 mmHg 55%
    22:00 +23°C° 0 mm 1 mps 751 mmHg 55%
    23:00 +23°C° 0 mm 2 mps 751 mmHg 54%

    Day after tomorrow, 31 May, Wednesday

    Time Temperature Precipitation Wind Pressure Humidity
    00:00 +23°C° 0 mm 2 mps 751 mmHg 54%
    01:00 +22°C° 0 mm 1 mps 750 mmHg 54%
    02:00 +21°C° 0 mm 1 mps 750 mmHg 55%
    03:00 +21°C° 0 mm 1 mps 750 mmHg 56%
    04:00 +22°C° 0 mm 1 mps 750 mmHg 53%
    05:00 +23°C° 0 mm 1 mps 750 mmHg 50%
    06:00 +25°C° 0 mm 2 mps 750 mmHg 47%
    07:00 +27°C° 0 mm 2 mps 750 mmHg 40%
    08:00 +29°C° 0 mm 2 mps 750 mmHg 33%
    09:00 +31°C° 0 mm 2 mps 750 mmHg 27%
    10:00 +32°C° 0 mm 2 mps 749 mmHg 25%
    11:00 +34°C° 0 mm 2 mps 749 mmHg 24%
    12:00 +34°C° 0 mm 1 mps 748 mmHg 23%
    13:00 +36°C° 0 mm 2 mps 748 mmHg 23%
    14:00 +36°C° 0 mm 2 mps 747 mmHg 23%
    15:00 +36°C° 0 mm 2 mps 747 mmHg 23%
    16:00 +35°C° 0.1 mm 2 mps 747 mmHg 28%
    17:00 +34°C° 0.1 mm 2 mps 747 mmHg 34%
    18:00 +31°C° 0.1 mm 2 mps 747 mmHg 40%
    19:00 +29°C° 0.3 mm 2 mps 748 mmHg 44%
    20:00 +27°C° 0.3 mm 2 mps 748 mmHg 48%
    21:00 +25°C° 0.3 mm 2 mps 749 mmHg 52%
    22:00 +24°C° 1.3 mm 2 mps 749 mmHg 58%
    23:00 +22°C° 1.3 mm 3 mps 749 mmHg 64%

    1 June, Thursday

    Time Temperature Precipitation Wind Pressure Humidity
    00:00 +21°C° 1.3 mm 3 mps 749 mmHg 69%
    01:00 +21°C° 0.7 mm 3 mps 749 mmHg 70%
    02:00 +21°C° 0.7 mm 3 mps 749 mmHg 71%
    03:00 +20°C° 0.7 mm 3 mps 748 mmHg 72%
    04:00 +21°C° 0.3 mm 3 mps 749 mmHg 70%
    05:00 +21°C° 0.3 mm 3 mps 749 mmHg 69%
    06:00 +22°C° 0.3 mm 4 mps 749 mmHg 67%
    07:00 +23°C° 0 mm 4 mps 749 mmHg 59%
    08:00 +26°C° 0 mm 4 mps 748 mmHg 51%
    09:00 +28°C° 0 mm 5 mps 748 mmHg 44%
    10:00 +29°C° 0.1 mm 5 mps 748 mmHg 40%
    11:00 +30°C° 0.1 mm 5 mps 748 mmHg 37%
    12:00 +32°C° 0.1 mm 4 mps 747 mmHg 34%
    13:00 +32°C° 0.2 mm 4 mps 747 mmHg 33%
    14:00 +33°C° 0.2 mm 4 mps 747 mmHg 32%
    15:00 +33°C° 0.2 mm 3 mps 746 mmHg 32%
    16:00 +31°C° 0.1 mm 3 mps 747 mmHg 35%
    17:00 +30°C° 0.1 mm 2 mps 747 mmHg 38%
    18:00 +29°C° 0.1 mm 2 mps 747 mmHg 41%
    19:00 +27°C° 0.1 mm 2 mps 748 mmHg 46%
    20:00 +25°C° 0.1 mm 2 mps 748 mmHg 50%
    21:00 +23°C° 0.1 mm 2 mps 749 mmHg 55%
    22:00 +21°C° 0 mm 2 mps 749 mmHg 59%
    23:00 +21°C° 0 mm 2 mps 749 mmHg 62%

    2 June, Friday

    Time Temperature Precipitation Wind Pressure Humidity
    00:00 +21°C° 0 mm 1 mps 750 mmHg 66%
    01:00 +20°C° 0 mm 1 mps 750 mmHg 69%
    02:00 +20°C° 0 mm 1 mps 750 mmHg 72%
    03:00 +19°C° 0 mm 1 mps 750 mmHg 75%
    04:00 +20°C° 0 mm 1 mps 750 mmHg 71%
    05:00 +21°C° 0 mm 1 mps 751 mmHg 68%
    06:00 +22°C° 0 mm 1 mps 751 mmHg 64%
    07:00 +23°C° 0 mm 2 mps 751 mmHg 58%
    08:00 +25°C° 0 mm 2 mps 751 mmHg 53%
    09:00 +26°C° 0 mm 2 mps 751 mmHg 47%
    10:00 +27°C° 0 mm 2 mps 751 mmHg 44%
    11:00 +28°C° 0 mm 2 mps 750 mmHg 40%
    12:00 +30°C° 0 mm 2 mps 750 mmHg 37%
    13:00 +30°C° 0.1 mm 1 mps 750 mmHg 36%
    14:00 +31°C° 0.1 mm 1 mps 749 mmHg 35%
    15:00 +31°C° 0.1 mm 1 mps 749 mmHg 34%
    16:00 +31°C° 0.1 mm 1 mps 749 mmHg 37%
    17:00 +30°C° 0.1 mm 1 mps 750 mmHg 40%
    18:00 +30°C° 0.1 mm 2 mps 750 mmHg 43%
    19:00 +28°C° 0.1 mm 2 mps 751 mmHg 46%
    20:00 +26°C° 0.1 mm 2 mps 751 mmHg 49%
    21:00 +24°C° 0.1 mm 3 mps 752 mmHg 52%
    22:00 +23°C° 0 mm 2 mps 752 mmHg 55%
    23:00 +21°C° 0 mm 2 mps 752 mmHg 58%

    3 June, Saturday

    Time Temperature Precipitation Wind Pressure Humidity
    00:00 +21°C° 0 mm 2 mps 752 mmHg 61%
    01:00 +21°C° 0 mm 1 mps 752 mmHg 63%
    02:00 +20°C° 0 mm 1 mps 752 mmHg 66%
    03:00 +18°C° 0 mm 0 mps 752 mmHg 68%
    04:00 +21°C° 0 mm 1 mps 752 mmHg 65%
    05:00 +22°C° 0 mm 1 mps 753 mmHg 61%
    06:00 +23°C° 0 mm 1 mps 753 mmHg 57%
    07:00 +24°C° 0 mm 1 mps 753 mmHg 54%
    08:00 +25°C° 0 mm 1 mps 753 mmHg 51%
    09:00 +27°C° 0 mm 1 mps 753 mmHg 47%
    10:00 +28°C° 0 mm 1 mps 753 mmHg 44%
    11:00 +29°C° 0 mm 2 mps 753 mmHg 41%
    12:00 +30°C° 0 mm 2 mps 752 mmHg 38%
    13:00 +31°C° 0 mm 2 mps 752 mmHg 37%
    14:00 +31°C° 0 mm 3 mps 752 mmHg 36%
    15:00 +33°C° 0 mm 3 mps 751 mmHg 35%
    16:00 +31°C° 0 mm 3 mps 752 mmHg 38%
    17:00 +30°C° 0 mm 4 mps 752 mmHg 40%
    18:00 +29°C° 0 mm 4 mps 752 mmHg 43%
    19:00 +28°C° 0.1 mm 4 mps 753 mmHg 47%
    20:00 +26°C° 0.1 mm 4 mps 753 mmHg 52%
    21:00 +23°C° 0.1 mm 4 mps 754 mmHg 56%
    22:00 +22°C° 0.1 mm 3 mps 754 mmHg 61%
    23:00 +22°C° 0.1 mm 3 mps 754 mmHg 65%
    Show more